{"data":{"norad_id":49305,"epoch":"2026-09-19T17:28:20.617824Z","epoch_age_seconds":93819,"freshness":"FRESH","line1":"1 49305U 21090AC  26262.72801641  .00000129  00000+0  31310-3 0  9992","line2":"2 49305  87.8896 270.8523 0002041  89.6015 270.5348 13.14502066239980","mean_motion":13.14502066,"eccentricity":0.0002041,"inclination_deg":87.8896,"raan_deg":270.8523,"arg_perigee_deg":89.6015,"mean_anomaly_deg":270.5348,"bstar":0.0003131,"rev_number":23998,"period_min":109.54718423394,"perigee_km":1204.2452976687,"apogee_km":1207.3410579672,"semimajor_km":7583.930177818,"source":"CELESTRAK","updated_at":"2026-09-20T09:00:44.674261Z"}}